Regional Weather Roundup
Issued by NWS

Home | Current Version | Previous Version | Graphics & Text | Print | Product List | Glossary On
Versions: 1 2 3 4 5 6 7 8 9 10 11 12 13 14 15 16 17 18 19 20 21 22 23 24 25 26 27 28 29 30 31 32 33 34 35 36 37 38 39 40 41 42 43 44 45 46 47 48 49 50
000
ASUS43 KFSD 161610
RWRSD

WEATHER ROUNDUP FOR SOUTH DAKOTA
NATIONAL WEATHER SERVICE SIOUX FALLS SD
1100 AM CDT WED APR 16 2014

NOTE: "FAIR" INDICATES FEW OR NO CLOUDS BELOW 12,000 FEET WITH NO
SIGNIFICANT WEATHER AND/OR OBSTRUCTIONS TO VISIBILITY.


SDZ001>005-009-010-012>017-161700-
NORTHWEST AND NORTH CENTRAL SOUTH DAKOTA

CITY           SKY/WX    TMP DP  RH WIND       PRES   REMARKS
BUFFALO          N/A     33  19  56 NE12      29.89R WCI  24
FAITH            N/A     33  21  61 NE20      29.91R WCI  21
MOBRIDGE       CLOUDY    30  24  78 NE16      29.92R WCI  19
$$

SDZ012>016-024>037-041>051-057-063-072>074-161700-
SOUTHWEST AND SOUTH CENTRAL SOUTH DAKOTA

CITY           SKY/WX    TMP DP  RH WIND       PRES   REMARKS
RAPID CTY ARPT PTSUNNY   36  29  75 N24G30    29.89R
PIERRE         CLOUDY    31  27  85 N16       29.87R WCI  20
CUSTER         CLOUDY    35  24  64 VRB6G22   29.83R
ELLSWORTH AFB  PTSUNNY   35  27  73 N22G28    29.89R WCI  23
PHILIP         CLOUDY    34  29  82 NE16G23   29.88R WCI  24
PINE RIDGE     RAIN      36  34  92 NW10      29.87R FOG
SPEARFISH      PTSUNNY   37  32  81 NW14      29.93R
WINNER         LGT RAIN  33  30  88 N22G31    29.78R WCI  21
$$

SDZ004>011-016>023-039-040-161700-
NORTHEAST SOUTH DAKOTA

CITY           SKY/WX    TMP DP  RH WIND       PRES   REMARKS
ABERDEEN       CLOUDY    29  25  85 NE24G30   29.90R WCI  15
WATERTOWN      SNOW      27  25  92 NE18      29.78R VSB 1/4 WCI  14
SISSETON         N/A     28  27  96 E20G26    29.91R WCI  15
$$

SDZ017-020-022-023-036>040-048>070-161700-
SOUTHEAST SOUTH DAKOTA

CITY           SKY/WX    TMP DP  RH WIND       PRES   REMARKS
SIOUX FALLS    LGT RAIN  43  34  70 S20G25    29.60F
HURON          HVY SNOW  30  28  92 N16       29.76R VSB 1/4 WCI  19
MITCHELL       CLOUDY    40  32  73 N24G33    29.67R
YANKTON        CLOUDY    48  27  43 S16       29.62S
$$

ABBREVIATIONS USED IN REMARKS
   TC - TEMPERATURE IN CELSIUS
  WCI - WIND CHILL INDEX
   HX - HEAT INDEX
  VSB - VISIBILITY




USA.gov is the U.S. government's official web portal to all federal, state and local government web resources and services.